Terug naar catalogus

STARLINK-11210

ActiefCommunicatieVLEO
NORAD 60116·PAYLOAD·🇺🇸 United States

Gelanceerd Jun 24, 2024 vanaf Vandenberg Space Force Base

Loading…

Volgende Passages (komende 24 uur)

TLE

VersSource: CelesTrak SupGP

Epoch: Sep 15, 2026, 03:31 UTC

1 60116C 24118D   26258.14701389 -.00031095  00000+0 -25618-3 0  2588
2 60116  53.1574   7.4562 0000974 103.7793  45.6270 15.69721710    19

Volg STARLINK-11210 in realtime met AllMySat

Download on the App Store